Location: Unspecified
(33.9239°N, 118.0544°W)
Time: 04:48:40
(UTC-07:00)

Cosmos 2058 - Visible Passes

Search period start: 27 May 2015 00:00
Search period end: 06 June 2015 00:00
Orbit: 568 x 588 km, 82.5° (Epoch: 26 May)

Date Brightness Start Highest point End Pass type
(mag) Time Alt. Az. Time Alt. Az. Time Alt. Az.
27 May 5.3 01:58:48 20° NNW 01:58:48 20° NNW 02:00:14 10° N visible
28 May 5.4 02:03:11 17° NNW 02:03:11 17° NNW 02:04:25 10° NNW visible
29 May 5.9 00:31:14 10° NE 00:31:14 10° NE 00:31:20 10° NE visible
29 May 5.5 02:07:32 15° NNW 02:07:32 15° NNW 02:08:30 10° NNW visible
30 May 5.8 00:35:35 13° NE 00:35:35 13° NE 00:36:10 10° NNE visible
30 May 5.7 02:11:52 12° NW 02:11:52 12° NW 02:12:23 10° NNW visible
31 May 5.6 00:39:55 16° NNE 00:39:55 16° NNE 00:40:51 10° NNE visible
01 Jun 5.5 00:44:14 18° NNE 00:44:14 18° NNE 00:45:25 10° NNE visible
02 Jun 5.4 00:48:32 20° N 00:48:32 20° N 00:49:53 10° N visible
03 Jun 5.4 00:52:49 21° N 00:52:49 21° N 00:54:16 10° N visible
04 Jun 5.4 00:57:06 20° NNW 00:57:06 20° NNW 00:58:33 10° N visible
05 Jun 5.5 01:01:21 18° NNW 01:01:21 18° NNW 01:02:45 10° NNW visible
05 Jun 5.7 23:29:20 11° NE 23:29:20 11° NE 23:29:39 10° NE visible
